Theta_e
314 315 315 315 316 316 316 315 314 313 312 313 314 315 315 314 314 316 317 315 315 315 314 315 317 317 320 321 317 322 332 333 333 335 335 336 337 339 340 340 340 338 338 336 333 331 330 332 336 337 338 339 339 339 336 335 336 336 337 338 337 336 337 337 336 336 336 335 335 335 334 333 332 331 331 331 331 331 331 330 330 331 332 332 331 331
314 316 317 315 315 316 317 318 318 315 314 314 314 315 315 315 316 318 318 315 316 318 316 318 320 318 324 326 317 321 335 337 333 333 333 334 335 336 337 337 335 334 333 332 330 330 332 336 338 339 340 340 339 335 330 330 333 336 337 337 337 336 337 337 336 335 335 334 334 333 333 333 332 331 331 331 331 331 331 331 330 331 331 330 331 331
315 316 316 313 313 314 316 317 317 317 317 316 316 316 316 317 317 320 321 317 318 320 317 318 317 320 329 330 323 320 326 332 333 333 333 334 334 334 335 334 332 332 332 331 332 335 338 340 340 340 340 338 336 332 329 331 334 336 335 336 337 334 334 336 336 334 334 333 333 333 332 332 332 331 331 331 331 331 331 331 332 331 330 330 331 330
316 315 314 312 312 314 316 316 316 315 317 319 318 315 315 317 316 320 322 317 318 320 320 321 323 331 337 332 329 321 314 322 331 333 332 332 334 333 331 330 328 332 335 334 335 338 340 340 340 340 337 337 338 334 329 331 335 336 333 333 333 328 327 332 334 332 332 333 333 333 333 333 332 332 332 332 332 332 332 332 332 331 330 330 330 330
315 314 313 312 313 314 315 315 316 315 316 322 323 317 317 319 317 318 319 320 327 327 327 328 329 339 340 328 328 325 313 315 324 330 332 331 333 331 330 330 329 333 335 336 337 338 339 339 340 338 336 339 340 335 328 329 335 336 332 331 330 326 324 327 328 327 328 330 331 333 334 333 332 332 332 331 332 332 332 332 332 331 331 331 330 329
315 314 313 313 313 313 313 314 316 316 317 321 325 323 322 322 321 319 318 324 329 324 324 325 321 329 338 332 329 326 319 318 322 327 329 329 331 333 334 334 333 334 334 334 336 337 338 339 340 340 340 341 338 333 328 330 334 334 331 330 329 326 325 325 324 324 324 325 327 330 333 333 332 333 332 331 331 331 330 331 331 331 331 330 329 328
315 315 314 314 314 312 313 313 313 316 319 320 324 327 324 321 322 321 318 320 322 320 321 322 318 322 331 331 325 324 326 328 328 329 329 329 329 330 333 333 333 334 332 333 336 337 338 339 340 341 340 340 337 332 329 329 332 332 328 328 329 327 325 324 324 324 323 323 325 329 331 332 332 332 331 331 331 330 330 330 331 331 331 330 328 328
316 316 316 315 314 313 313 313 313 316 319 322 326 324 321 320 320 320 317 315 319 321 323 325 322 320 321 322 321 323 331 333 331 331 330 330 330 328 329 331 332 332 331 332 334 336 337 338 340 340 340 339 335 331 329 328 330 331 328 327 328 327 323 323 324 323 323 323 326 328 330 332 332 331 331 331 331 330 330 330 330 330 329 327 328 328
317 318 317 315 314 313 313 314 315 316 317 324 327 321 320 319 317 319 315 316 323 321 321 329 325 316 317 323 326 328 333 333 332 332 330 329 329 330 331 331 331 331 331 331 333 335 336 337 340 340 339 337 334 331 329 327 328 329 328 327 327 326 324 324 324 324 325 325 326 329 331 332 332 332 331 331 331 330 330 330 329 329 327 326 328 329
317 317 316 315 315 315 314 314 316 318 318 321 323 319 318 317 316 320 318 320 327 321 319 328 322 313 319 329 333 333 334 334 333 331 329 329 330 330 332 333 332 332 332 331 332 335 336 337 338 337 336 335 333 331 328 327 327 327 327 327 327 327 326 325 325 327 328 327 328 330 332 333 332 332 332 332 331 331 330 329 329 329 327 327 330 331
314 314 315 315 316 315 316 316 315 318 319 318 320 317 316 321 325 329 330 326 323 320 325 329 321 313 319 328 334 335 334 334 332 330 329 329 330 330 331 332 334 335 334 334 335 336 336 336 333 331 333 334 332 332 331 328 326 327 329 328 328 328 327 327 328 329 329 329 329 331 333 333 333 333 332 332 332 330 329 329 329 328 328 330 331 330
314 313 314 315 316 315 316 317 315 317 318 316 320 317 316 325 327 328 333 326 317 322 331 327 318 317 321 326 332 334 332 330 329 330 329 329 330 330 330 331 332 334 335 336 337 336 336 334 332 333 335 335 332 331 331 329 327 329 331 330 330 330 330 329 330 331 331 330 331 332 333 333 333 333 332 331 331 329 329 329 328 328 330 331 330 329
319 316 314 315 316 316 316 318 316 317 318 316 320 320 316 320 321 321 326 323 320 325 328 320 315 322 326 327 330 331 330 328 327 328 328 328 328 328 329 330 330 331 332 333 334 334 333 332 332 334 335 334 332 331 329 328 330 332 333 333 333 333 333 333 333 333 333 333 333 332 333 333 333 332 331 331 330 329 328 328 328 330 331 330 329 330
319 319 315 313 316 316 317 318 317 318 318 315 317 319 318 320 319 319 321 321 320 322 323 319 315 323 329 328 326 328 329 328 327 326 327 327 327 327 328 329 330 330 330 330 331 332 333 334 333 333 334 334 333 332 330 328 330 333 333 334 334 334 334 334 335 335 334 334 334 333 332 333 333 332 331 331 330 329 328 327 328 331 330 328 329 330
318 320 319 316 316 316 317 318 319 321 320 316 317 318 319 324 324 321 322 320 318 319 323 322 315 322 330 328 324 327 329 329 328 327 326 326 326 327 327 328 329 330 330 329 330 330 332 332 332 331 333 333 333 333 332 329 329 331 332 333 334 333 333 333 334 334 335 335 334 332 332 333 333 332 331 330 330 328 327 327 330 330 329 329 330 329
314 319 323 317 315 317 316 317 317 319 320 317 316 315 316 323 325 322 324 326 325 323 321 323 323 324 328 327 324 327 329 329 329 328 327 327 327 327 326 327 327 328 329 329 329 329 329 329 329 330 330 330 330 331 332 331 330 331 332 332 333 333 332 332 332 333 333 333 332 331 331 333 332 331 331 330 329 327 327 329 330 329 329 330 330 329
314 322 327 316 314 319 316 316 317 316 321 320 315 315 316 317 318 319 321 322 324 322 318 324 329 326 325 326 325 327 328 328 328 328 328 328 327 327 327 327 326 327 328 328 328 328 327 328 328 329 330 328 327 328 330 332 332 332 332 332 333 333 332 332 332 332 331 329 328 327 329 332 332 331 331 330 328 326 328 330 329 329 330 330 330 329
319 322 328 319 313 317 315 316 317 315 320 320 315 316 315 313 317 325 326 320 317 320 321 326 330 328 326 326 324 326 329 328 327 327 327 327 327 326 326 326 325 325 326 326 326 326 327 327 328 328 329 329 327 328 329 330 331 331 330 330 331 332 332 331 331 331 330 329 326 325 328 331 331 331 331 330 327 327 329 330 329 330 330 330 329 329
319 318 326 323 315 317 316 314 317 315 315 317 316 317 317 317 321 324 323 319 317 321 321 323 328 329 327 326 325 328 329 327 327 326 325 326 325 324 323 323 322 323 324 324 324 325 326 326 326 326 326 327 328 328 329 329 329 329 329 330 330 330 330 330 330 331 331 330 328 328 329 330 331 331 330 329 328 327 329 329 329 329 330 329 328 328
321 319 323 325 318 316 316 316 319 319 314 314 314 315 318 325 326 320 318 319 319 323 322 322 329 331 326 325 327 328 328 326 326 324 324 324 323 323 322 321 320 320 321 323 323 324 324 324 324 324 325 326 327 327 328 328 328 329 330 330 330 329 328 329 330 330 330 330 329 329 330 331 331 330 330 329 328 327 329 330 329 328 328 328 327 327
317 317 322 329 322 316 318 318 320 321 317 315 316 315 315 319 321 319 320 320 320 326 328 326 329 330 326 325 326 327 327 325 325 323 323 323 322 321 320 319 319 319 320 321 322 323 324 324 324 324 325 326 326 327 327 327 327 328 330 331 330 330 329 330 330 330 329 329 329 329 330 331 331 329 330 329 328 328 328 328 328 328 328 328 327 327
315 318 325 330 322 317 321 320 317 318 317 316 318 318 315 316 319 319 319 322 326 330 329 328 330 328 325 325 324 324 324 324 323 323 322 322 321 319 318 317 317 317 318 319 320 322 323 324 324 325 325 326 327 327 327 327 327 328 329 330 330 331 331 330 330 329 329 329 328 328 329 331 330 329 330 329 328 328 327 327 328 328 328 328 327 327
323 325 323 322 320 319 318 318 318 318 319 321 321 320 320 319 321 322 323 326 328 326 324 327 330 327 324 323 323 322 321 321 321 321 321 320 319 318 316 315 316 316 317 318 319 320 321 322 323 324 325 325 326 327 327 327 327 327 328 328 328 329 330 329 330 330 329 329 328 327 328 330 330 330 330 329 328 328 327 326 327 328 328 328 327 327
325 324 319 320 326 325 318 318 322 320 322 329 327 324 325 322 322 328 333 334 330 325 326 330 329 326 324 323 322 320 319 319 317 317 319 318 317 316 314 314 315 315 316 317 317 318 319 321 323 323 324 324 324 325 325 325 325 326 327 327 327 327 327 328 330 330 330 330 329 329 329 329 330 331 329 328 328 328 328 327 327 328 328 327 327 327
322 323 326 324 322 322 320 323 328 325 324 328 327 324 324 324 326 327 329 334 331 323 327 333 329 326 325 322 320 319 317 316 315 314 315 315 314 314 312 312 314 315 315 316 316 317 318 319 321 321 322 323 323 323 324 324 324 325 325 326 326 326 327 328 329 330 331 331 330 329 329 329 330 330 329 328 328 328 328 328 327 327 327 327 328 326
324 324 331 332 325 323 323 326 330 328 325 327 326 323 322 326 329 324 324 336 334 322 324 331 328 325 323 320 318 316 315 314 313 312 312 312 312 312 311 311 312 313 314 315 315 315 316 317 318 318 319 320 321 321 322 323 323 324 324 325 325 326 327 327 328 329 330 331 330 330 330 329 329 329 328 328 328 328 329 328 327 326 327 327 327 325
330 323 326 331 330 328 327 325 325 325 324 326 323 321 321 323 326 328 332 337 331 323 324 326 325 324 322 319 316 314 312 311 311 311 310 310 310 309 309 309 309 310 311 313 315 315 316 316 316 316 317 317 318 319 320 321 322 322 322 323 324 325 326 327 328 329 329 330 330 330 330 330 329 329 328 328 328 328 328 328 327 327 328 327 326 326
335 326 322 324 323 322 322 321 320 320 320 321 320 319 320 320 323 330 333 327 324 326 327 324 323 323 319 317 315 312 310 309 309 309 308 308 308 308 308 308 308 308 309 310 312 313 314 315 316 316 316 316 317 317 318 319 320 321 322 323 323 324 325 326 327 328 328 328 329 329 330 330 330 329 328 327 328 328 328 328 327 327 328 326 326 326
334 328 322 322 321 319 319 318 317 317 316 316 317 318 318 318 320 324 323 320 323 329 329 323 321 319 316 314 312 310 309 308 307 307 307 306 306 306 307 306 306 307 307 308 310 310 311 312 314 315 315 316 317 318 318 319 319 320 321 322 322 323 324 325 326 327 327 327 327 328 329 330 329 329 328 327 328 328 328 327 327 327 326 325 326 326
327 326 320 320 320 318 317 316 315 316 315 315 315 316 316 317 317 318 319 319 321 324 322 319 317 314 312 310 309 309 308 307 307 306 305 305 305 305 305 305 305 305 306 307 309 309 310 311 313 314 315 316 316 317 318 318 319 320 320 320 321 322 323 324 325 326 326 326 327 326 328 329 329 330 329 327 327 328 327 326 326 326 324 324 326 326
322 322 319 320 320 318 316 314 314 314 314 314 314 314 315 315 315 315 317 317 318 318 315 314 313 311 309 308 307 307 306 306 306 305 305 304 304 304 304 304 304 304 305 306 308 310 311 312 313 315 315 315 316 316 317 317 318 319 319 319 320 321 322 323 324 326 326 326 326 326 327 329 329 330 329 327 327 328 326 324 325 325 324 325 326 325
323 322 321 322 321 318 316 315 314 315 315 315 314 313 314 315 314 314 314 314 316 317 315 314 314 311 308 307 306 305 305 305 305 304 304 304 303 303 303 303 303 303 304 305 307 310 312 312 312 313 314 314 315 315 316 316 317 317 318 319 320 320 321 323 324 325 326 326 326 326 327 328 330 330 329 327 327 327 325 324 325 325 325 326 325 324
324 324 324 323 321 319 318 317 318 321 321 318 314 313 313 314 313 313 312 311 312 314 315 315 312 309 307 306 305 304 304 304 303 303 303 303 303 303 303 302 303 302 303 304 306 308 310 310 310 311 312 313 314 314 314 315 316 316 317 318 319 319 321 323 324 324 325 325 326 326 326 327 328 329 328 327 327 326 324 323 324 325 326 326 325 325
322 323 323 322 322 320 318 317 320 323 322 316 312 312 313 312 312 312 312 310 309 310 310 309 308 306 306 305 304 303 303 303 302 302 302 302 302 302 302 302 302 302 303 303 304 306 307 308 309 310 311 312 313 313 313 314 315 316 316 317 318 319 320 322 323 324 324 325 325 325 325 326 327 328 328 327 327 326 324 322 323 325 326 325 324 324
320 320 321 320 319 319 317 318 320 320 316 312 311 312 311 310 310 310 310 309 309 308 307 306 306 305 304 303 303 302 302 302 301 301 301 301 301 301 301 301 301 302 303 303 303 304 306 307 308 309 309 311 312 312 313 314 314 315 316 316 317 318 319 320 321 322 323 324 325 324 324 325 327 327 327 326 327 326 324 323 323 325 325 324 323 322
320 320 321 319 317 317 317 319 319 316 313 311 311 312 311 311 311 311 310 309 308 308 307 306 305 304 303 303 302 301 300 300 300 300 300 300 300 300 300 300 301 301 302 303 303 303 304 306 306 306 307 309 310 312 312 313 313 314 315 315 316 318 318 318 319 319 321 322 322 323 323 324 325 326 326 326 326 325 324 322 323 323 323 322 321 321
319 321 321 319 316 316 316 316 315 314 312 311 311 311 311 311 311 311 311 309 308 308 307 305 304 304 303 303 302 301 301 301 300 300 300 300 299 299 300 300 300 300 301 301 302 302 303 304 304 305 306 308 309 309 310 311 312 313 314 315 316 317 317 317 317 317 318 319 319 321 322 323 324 325 325 325 324 323 322 322 322 322 321 321 321 321
317 321 323 320 316 314 314 314 314 314 314 312 310 309 309 310 310 310 310 309 308 308 308 306 305 305 304 303 303 302 303 303 301 300 299 299 299 299 299 299 299 299 300 301 301 302 302 303 303 304 305 307 307 307 308 310 311 312 313 314 315 315 316 316 316 315 316 317 317 318 320 321 322 323 324 324 323 321 321 322 321 321 320 320 320 320
316 318 321 319 316 314 314 314 314 314 313 311 309 308 309 310 310 310 311 311 308 308 309 308 307 306 305 304 304 304 305 305 302 300 299 299 299 299 298 298 298 298 299 299 299 300 300 301 301 302 303 304 305 305 306 308 309 311 312 311 312 314 314 313 313 314 315 315 316 317 317 318 319 321 322 323 322 322 321 321 320 320 320 320 320 320
317 318 319 318 316 315 314 313 312 312 310 308 307 308 308 309 310 312 315 312 307 307 308 307 307 307 306 305 305 305 304 304 301 300 299 299 299 299 299 299 298 298 298 298 298 298 298 298 298 299 300 300 301 302 304 305 308 309 309 308 310 311 311 310 310 312 313 314 315 315 316 316 316 317 318 318 318 319 319 318 318 318 317 317 317 317
316 316 316 316 314 312 312 311 310 310 308 307 307 307 307 309 312 314 314 310 307 307 307 305 304 305 304 304 304 303 302 302 300 299 299 299 299 299 299 299 299 299 299 299 298 298 298 297 297 297 298 298 299 300 301 303 305 306 305 306 307 306 305 306 307 309 310 312 313 314 315 315 315 315 315 315 315 316 316 315 315 315 315 314 314 314
316 315 315 314 313 312 310 310 310 310 307 306 306 307 307 310 313 312 309 307 306 305 304 303 303 303 303 302 301 300 300 300 300 299 299 299 299 299 299 299 299 300 300 299 299 299 299 298 298 298 298 298 299 299 300 301 302 303 303 303 303 302 302 304 305 306 307 309 311 312 313 313 314 314 313 314 314 315 315 315 315 315 315 315 315 315
312 313 313 312 312 312 311 310 311 311 307 305 307 307 307 309 310 307 306 306 305 304 303 302 302 301 301 300 300 300 300 299 299 299 299 298 298 298 298 299 299 299 300 300 300 300 300 300 299 299 299 299 299 299 299 300 300 300 301 301 301 301 301 302 303 304 305 306 307 308 309 311 312 313 313 313 313 313 313 313 314 314 315 315 315 315
309 311 311 309 308 310 310 309 309 308 305 305 307 307 306 307 306 306 305 305 304 303 302 302 301 301 301 300 300 299 299 299 299 299 298 299 298 298 298 298 298 299 299 299 300 300 300 300 300 300 300 300 299 299 299 299 300 300 300 300 299 300 300 300 301 302 302 303 304 304 305 307 309 310 311 311 312 312 312 312 312 312 313 313 314 314
308 308 309 308 306 307 307 306 306 305 304 304 305 305 305 306 306 305 305 304 303 302 302 301 301 301 301 301 300 299 299 298 298 298 298 298 298 298 298 298 298 299 299 299 300 300 300 300 300 300 300 300 300 300 299 300 300 300 300 300 300 300 299 299 300 300 300 300 301 301 302 303 305 307 308 308 309 310 311 311 311 311 311 311 311 312
307 306 307 306 306 305 305 305 304 304 304 304 304 305 305 305 305 305 304 303 302 302 301 301 301 300 300 300 299 299 298 298 298 298 299 299 298 298 298 297 297 298 298 298 299 299 299 299 300 300 300 300 300 300 300 300 300 300 300 301 301 301 300 300 299 299 299 298 299 300 300 300 300 302 304 306 306 307 307 308 308 308 308 308 308 308
307 307 307 306 306 306 305 304 304 304 303 303 304 304 304 304 304 304 303 303 302 302 301 301 300 300 299 299 299 298 298 298 298 299 299 299 299 298 298 297 298 298 298 298 298 298 298 298 299 299 300 300 300 300 299 300 300 300 300 300 301 301 301 301 301 301 300 300 300 300 301 300 300 299 301 303 305 305 305 305 305 305 305 306 306 306
307 306 306 306 305 305 304 303 303 303 303 303 303 303 303 303 303 303 303 302 302 301 301 300 300 299 299 299 299 299 299 299 299 299 299 299 299 298 298 299 299 299 299 299 299 299 299 299 299 299 299 299 299 299 299 299 299 299 299 299 300 300 301 301 301 302 301 301 301 301 301 302 301 301 300 300 302 304 304 304 304 304 304 305 305 304
307 306 306 305 304 304 303 303 302 303 303 303 303 303 302 302 302 302 301 301 301 300 300 300 300 300 300 300 300 300 300 300 300 300 300 300 300 299 299 299 299 299 299 299 299 299 299 299 299 299 299 299 299 299 299 299 298 299 299 299 299 299 300 301 301 301 301 301 301 301 301 301 302 302 301 300 299 300 301 301 302 303 303 304 304 304
305 305 304 304 304 304 303 302 302 302 302 302 302 302 302 301 301 301 301 301 300 300 300 300 300 300 301 301 301 301 301 301 300 301 301 300 300 300 300 300 300 300 300 299 299 299 299 299 299 299 299 299 299 299 299 299 298 298 299 299 299 299 299 300 300 300 300 300 301 301 301 301 301 301 302 301 300 299 298 298 298 299 300 300 300 301
305 304 304 305 304 304 303 303 302 302 302 302 302 302 302 302 302 302 302 302 301 301 300 301 301 301 301 301 301 301 301 301 301 301 301 300 301 300 300 300 300 300 300 300 300 299 299 300 299 299 299 299 299 299 299 299 299 299 298 299 299 299 299 300 299 299 300 300 300 300 300 301 301 301 301 302 301 301 300 298 298 297 297 297 297 297
Wind_Speed
5 3 2 5 5 6 6 6 8 8 4 4 4 4 5 5 6 6 9 8 7 8 6 9 8 7 7 5 6 2 8 10 12 11 13 16 20 25 27 26 22 17 16 17 18 18 16 16 13 10 12 15 12 6 1 5 13 21 25 29 27 27 31 32 30 30 29 28 26 24 24 23 22 21 21 20 19 19 19 18 18 18 17 17 17 17
5 5 6 8 8 8 8 7 7 6 5 5 4 5 7 5 6 8 7 5 3 6 4 7 7 7 7 4 4 6 10 10 15 14 15 19 19 23 24 23 20 17 17 19 20 18 17 16 13 12 15 13 6 4 2 2 12 22 25 26 24 26 32 31 28 29 27 25 24 23 22 21 20 21 20 19 18 18 18 18 18 17 17 17 18 18
3 5 9 9 8 7 7 7 7 5 4 5 4 4 6 4 4 8 6 3 4 3 3 4 7 7 8 4 5 5 8 11 24 26 25 27 23 23 26 23 20 18 20 21 22 20 17 16 14 14 14 9 5 7 7 7 15 22 20 20 19 11 17 25 23 23 24 22 22 20 18 18 19 20 19 17 17 18 18 18 17 17 17 18 18 18
3 6 10 10 7 6 7 7 5 4 4 4 4 4 6 5 2 4 5 7 6 1 3 3 3 4 6 5 6 4 4 6 22 31 30 32 31 29 28 24 22 23 23 23 22 21 18 18 17 16 13 9 11 11 8 9 16 22 18 18 18 11 9 18 19 17 19 19 20 19 17 17 18 19 18 17 17 18 18 18 18 17 17 17 18 18
6 8 7 8 7 8 7 7 5 4 4 4 5 6 5 5 4 4 2 7 7 4 2 6 4 5 5 6 7 5 5 7 8 19 19 23 27 25 25 26 22 16 15 19 21 20 21 23 22 19 14 12 15 12 8 9 16 21 18 20 23 17 15 20 21 22 21 20 21 21 20 20 20 20 19 19 20 20 19 19 19 17 16 16 17 18
9 9 6 7 7 9 7 7 6 6 4 5 5 8 7 6 5 2 2 5 6 5 2 5 4 5 6 5 6 6 8 12 7 3 3 6 9 10 12 14 9 2 3 13 18 18 19 22 21 19 17 15 15 11 8 11 15 19 20 22 25 24 23 22 22 27 28 24 24 26 26 25 24 23 22 22 22 22 21 19 18 18 16 16 16 17
5 7 8 8 9 9 8 8 6 7 5 4 6 7 6 2 3 3 3 4 2 2 3 3 5 3 5 6 7 6 9 11 11 10 10 10 6 7 9 7 5 3 2 10 17 18 17 20 21 20 18 15 14 12 10 13 17 21 21 22 25 25 24 22 21 27 29 25 26 27 28 27 25 24 23 22 21 21 20 18 18 18 16 15 15 16
4 7 8 8 9 8 6 7 6 9 7 4 6 5 2 2 4 4 2 3 3 2 4 3 5 2 3 6 8 6 10 11 13 12 14 18 15 2 8 7 6 6 4 8 15 17 17 18 18 18 16 14 15 14 13 14 18 22 20 21 25 24 20 20 22 25 27 26 26 26 27 27 25 23 22 21 20 20 19 17 17 17 16 15 15 15
3 8 9 9 8 6 6 8 8 10 6 6 7 5 3 3 3 3 2 3 2 2 4 6 3 4 2 6 9 7 10 11 12 11 12 18 21 14 10 8 7 8 7 9 13 17 16 15 15 15 13 15 17 15 13 15 17 20 20 22 26 24 20 21 22 23 25 25 24 24 27 27 25 23 22 20 19 20 19 18 17 17 16 15 15 15
4 8 10 9 7 6 9 10 8 10 6 6 5 4 1 2 2 3 3 3 2 4 2 7 1 4 1 6 7 6 7 7 7 8 10 15 20 19 18 16 13 11 10 10 13 17 15 12 12 11 10 15 18 16 15 17 18 19 21 22 23 22 21 23 25 23 22 23 24 25 26 26 24 23 21 19 19 20 20 19 18 18 17 15 16 16
7 10 8 5 6 8 9 9 9 11 7 4 3 2 3 5 4 4 4 4 4 3 5 6 1 6 2 4 5 4 5 5 4 5 8 14 19 20 18 17 17 15 15 15 16 17 16 14 12 8 9 16 21 20 20 21 19 19 21 21 22 22 24 27 28 26 24 23 24 27 26 25 23 21 20 19 19 20 21 21 19 18 18 18 18 18
5 7 5 4 9 9 7 4 6 7 5 6 4 2 1 4 4 4 5 4 3 2 7 6 2 8 4 1 3 6 8 7 6 6 7 11 15 19 18 16 16 17 18 20 21 20 18 16 13 10 12 18 22 21 19 18 19 22 24 24 25 25 26 27 29 29 28 26 25 26 25 23 21 20 19 19 19 20 21 21 19 19 20 20 19 18
4 5 5 5 8 8 8 2 1 2 4 6 5 5 3 2 2 2 3 1 1 4 6 5 2 6 3 1 5 9 11 10 9 9 9 11 14 17 19 18 16 14 14 15 17 17 15 14 11 13 19 21 21 20 19 18 21 23 24 25 26 27 26 26 27 29 29 28 26 24 22 22 21 19 19 19 18 19 20 20 20 22 22 22 20 18
4 6 4 2 4 5 8 6 2 1 2 4 4 5 4 2 3 1 3 0 2 5 5 4 2 4 2 2 5 6 10 11 11 13 13 14 15 16 17 17 17 16 13 11 9 8 9 10 7 8 16 20 18 20 22 20 21 20 16 16 19 22 22 20 22 25 28 29 26 22 21 21 20 20 20 19 18 18 19 20 22 23 23 22 21 19
2 4 3 3 3 4 6 7 7 5 3 3 4 5 5 4 4 3 2 2 3 4 5 4 2 3 3 2 2 1 11 14 14 16 17 17 17 18 19 18 16 15 14 12 10 7 5 4 3 1 6 14 18 20 20 20 23 21 15 14 16 15 12 12 14 20 25 26 24 20 20 21 20 19 19 17 17 18 19 21 23 24 23 22 20 19
4 4 7 4 4 6 6 4 6 7 3 3 3 5 2 5 5 3 3 5 4 1 2 2 3 2 3 4 1 3 11 14 15 17 18 18 19 21 21 19 17 15 12 11 11 10 8 5 3 3 2 6 12 16 18 20 24 23 17 17 20 16 10 10 12 17 21 23 20 17 18 20 20 19 18 17 18 19 20 23 25 24 22 21 19 19
3 4 7 1 3 6 8 7 5 7 4 1 3 2 3 5 7 4 2 1 3 2 2 1 4 2 3 4 4 6 8 10 12 15 16 17 19 21 21 19 18 16 14 13 12 11 10 8 6 5 4 1 5 9 14 19 23 23 20 18 21 20 13 11 12 15 18 19 15 12 15 18 20 19 17 18 20 21 22 25 25 23 23 21 19 19
4 3 7 1 4 6 10 11 4 5 7 4 2 5 1 3 4 4 2 1 3 2 3 1 5 4 3 2 3 4 8 9 9 11 14 16 18 20 21 20 20 19 18 17 16 15 13 12 9 6 5 4 2 5 10 14 18 22 23 20 19 22 21 18 16 15 16 17 12 9 13 17 19 19 18 18 20 22 24 26 23 22 24 22 19 20
3 1 7 2 4 5 4 6 2 2 2 5 5 4 4 2 1 1 2 2 2 3 1 3 3 1 2 1 1 3 6 9 9 10 12 14 16 18 20 21 21 21 21 20 19 18 17 18 16 12 8 7 3 3 7 11 14 18 20 19 17 20 22 20 20 18 16 15 12 8 10 16 18 18 18 19 21 23 25 25 22 21 22 20 19 21
2 2 4 6 1 2 3 3 2 3 3 1 2 1 2 3 3 2 3 4 4 3 2 2 2 1 2 2 1 3 5 8 10 9 9 12 14 16 17 18 20 22 22 21 20 19 19 19 19 17 14 10 6 3 3 6 9 12 15 15 13 15 18 17 17 17 15 14 12 9 10 14 16 17 19 20 22 23 25 24 21 20 20 19 20 21
2 3 3 6 5 3 1 2 6 6 3 2 2 2 2 1 1 2 1 2 4 4 3 3 0 3 2 0 2 4 5 7 9 8 8 12 15 15 17 18 19 20 20 19 18 18 17 16 16 15 13 10 6 4 3 3 3 5 9 10 10 10 14 14 13 14 13 13 13 11 12 15 17 18 20 22 24 24 24 24 22 20 20 20 20 20
3 3 3 3 3 1 2 1 2 6 6 6 4 3 4 3 2 2 1 2 2 4 4 5 3 3 0 2 2 5 7 7 8 9 10 13 15 16 17 18 18 18 18 18 17 16 14 14 13 12 11 9 7 6 5 5 3 2 6 7 8 10 12 12 12 14 14 14 14 13 15 17 19 20 22 24 26 25 24 25 23 22 21 20 20 20
3 4 3 2 2 3 3 8 9 5 4 7 3 1 1 3 3 5 3 3 2 3 2 5 3 2 1 2 4 7 8 9 11 11 11 13 15 16 17 18 17 17 17 16 16 16 15 13 12 10 10 10 8 7 7 7 6 2 4 5 5 7 9 11 13 15 15 16 16 15 16 18 20 22 23 26 28 27 25 25 24 23 22 21 20 19
2 3 2 2 4 2 3 8 11 9 7 6 3 3 2 1 3 5 5 3 3 2 2 4 2 2 3 3 7 11 11 13 14 14 13 13 14 16 18 18 17 16 16 16 15 15 15 13 12 11 11 11 10 9 9 8 8 6 2 4 4 5 8 10 12 15 16 16 16 15 16 19 20 22 24 27 29 28 26 25 25 24 23 22 21 19
2 1 3 2 2 3 2 3 6 7 5 4 3 6 5 3 3 3 2 4 4 1 2 5 2 2 3 4 7 10 11 12 14 15 15 14 13 16 18 18 17 15 15 16 16 15 15 15 14 14 13 12 11 10 10 9 9 9 8 7 7 6 8 10 11 14 15 16 16 15 16 18 20 22 25 28 30 29 27 26 25 25 24 23 22 20
3 2 3 5 4 4 3 2 1 2 2 3 4 8 9 7 5 2 3 4 3 1 3 5 3 3 5 7 8 8 9 10 12 14 16 16 15 15 17 17 16 15 15 16 16 16 16 15 16 16 15 14 13 12 11 10 10 10 11 11 12 12 12 12 12 13 14 15 15 16 16 17 21 24 28 31 31 29 28 27 25 25 26 24 22 22
4 3 3 6 6 5 4 2 2 2 4 4 6 10 11 8 6 3 4 3 4 4 4 2 6 8 7 7 8 8 8 9 9 12 13 14 15 15 15 15 14 15 15 14 15 15 15 15 15 16 16 15 15 14 13 12 11 11 12 12 13 14 15 15 14 14 15 16 18 19 18 18 22 26 31 33 31 29 29 27 26 26 26 24 23 23
5 4 6 8 9 6 6 6 5 8 9 7 7 10 11 10 9 8 5 1 4 6 2 1 8 9 7 7 8 7 7 7 8 10 11 11 13 14 13 13 14 15 15 15 15 15 15 15 15 15 16 15 15 14 14 14 13 12 13 14 15 15 14 14 14 14 14 17 21 22 20 19 21 26 32 32 30 31 30 28 28 28 25 24 25 24
6 3 5 8 11 9 8 9 11 13 11 9 11 10 11 13 13 10 5 2 1 5 6 8 10 9 7 8 8 7 7 7 7 9 9 10 13 14 13 14 15 16 16 16 16 15 16 16 15 15 15 15 15 15 15 16 16 16 16 16 17 17 15 14 14 13 13 16 20 23 21 20 22 25 31 32 31 31 30 29 29 27 25 26 27 24
4 3 3 7 10 8 6 6 10 13 12 10 12 10 9 11 12 11 9 7 7 8 9 12 13 9 6 6 7 8 9 8 8 10 11 12 14 14 14 15 16 16 16 15 16 16 15 15 15 14 14 14 16 16 16 17 18 19 19 19 18 17 16 14 12 11 12 13 15 19 20 21 23 26 30 32 32 30 29 29 28 26 26 28 28 25
3 2 1 4 7 5 4 6 9 12 13 12 12 11 10 10 11 10 8 7 9 10 11 13 12 8 5 7 9 10 10 10 9 11 12 13 14 14 15 16 16 16 15 14 15 14 13 14 14 14 14 15 17 17 18 19 19 18 18 19 19 18 16 14 12 9 11 12 13 16 20 22 24 27 31 32 31 30 29 28 26 28 29 29 28 26
3 2 1 3 6 1 0 5 9 12 14 13 11 11 11 8 7 7 6 5 5 8 11 10 7 4 4 7 11 11 11 12 11 11 11 12 13 14 14 15 15 15 14 13 13 12 11 13 14 14 14 15 15 16 17 18 18 18 18 19 19 16 12 11 11 9 11 12 13 16 20 23 26 28 31 32 32 31 29 27 28 30 31 30 29 27
3 4 2 3 4 2 3 2 3 5 7 7 5 7 6 4 5 6 7 9 7 4 6 4 3 4 6 7 9 9 10 12 12 12 12 12 12 12 12 13 13 12 12 12 11 10 10 11 12 13 13 14 14 15 16 16 16 17 18 18 17 14 10 8 7 7 8 10 11 14 20 24 26 29 31 32 32 31 30 29 31 32 31 30 29 28
4 5 3 2 3 3 4 3 2 4 3 1 3 4 3 5 8 9 8 9 9 7 6 5 5 6 6 7 9 10 11 12 13 13 12 11 11 11 11 11 11 10 10 10 9 9 9 10 10 10 11 12 13 13 13 13 14 15 16 17 17 16 12 7 4 1 3 5 9 14 18 22 26 28 32 33 33 32 31 31 33 33 31 30 29 27
5 5 4 2 3 4 3 2 1 3 2 2 1 3 6 9 12 13 11 9 9 9 9 9 8 7 10 13 15 16 16 16 15 14 13 11 10 10 10 10 9 9 10 9 9 9 9 9 8 8 10 11 11 10 11 11 12 12 13 14 16 16 14 9 4 3 4 4 8 12 16 20 25 28 30 33 34 34 33 32 32 31 30 29 28 27
6 5 4 3 2 3 1 0 2 3 3 3 1 2 4 5 6 8 9 9 8 6 7 8 8 10 14 16 18 20 20 19 17 16 13 11 10 10 10 9 9 10 10 9 9 9 9 9 8 9 11 10 9 9 10 10 11 11 11 11 11 13 13 12 11 10 7 5 6 10 13 17 23 28 30 32 33 32 31 31 28 27 28 29 28 27
6 5 4 3 2 2 3 2 3 4 3 1 1 1 1 1 1 2 4 4 6 5 6 9 8 10 13 16 19 20 18 16 15 14 11 10 10 10 9 9 9 10 10 9 9 8 8 8 8 10 10 9 9 10 11 10 10 10 10 10 10 10 11 13 16 17 14 11 8 8 12 14 20 27 30 31 30 27 28 29 26 25 28 29 29 28
4 3 5 3 2 2 4 4 3 3 2 1 1 3 6 4 2 2 3 3 4 5 5 9 8 10 13 14 16 15 8 6 6 6 7 9 9 9 9 9 10 10 10 10 9 9 9 9 9 10 10 10 11 12 12 10 10 10 11 12 11 11 12 15 17 19 18 17 15 11 9 12 18 25 28 29 28 26 27 31 31 29 29 29 30 30
7 3 4 5 3 2 4 4 2 2 1 1 0 5 10 6 3 2 3 3 2 5 6 10 8 10 13 13 15 12 3 2 2 3 6 8 9 9 10 10 11 12 13 13 13 13 13 11 11 11 12 14 14 13 12 11 10 11 14 15 15 13 15 18 18 17 17 18 18 18 15 11 11 19 26 30 30 29 30 32 33 32 31 31 31 30
7 4 3 4 4 3 3 3 2 1 1 1 2 6 9 6 2 2 1 2 1 3 8 10 8 8 10 11 13 8 1 2 5 6 7 9 10 11 10 10 11 12 13 14 15 16 15 14 14 14 16 17 17 15 13 12 11 14 17 17 17 17 18 19 18 16 14 14 16 19 20 18 15 14 18 23 26 28 28 28 29 29 29 29 30 31
4 4 3 4 4 4 4 3 2 1 1 2 5 8 8 4 2 2 1 3 4 8 11 11 10 9 9 10 11 9 8 10 12 11 10 11 11 11 11 11 11 11 12 13 14 15 15 16 17 18 18 18 17 16 15 13 13 15 18 19 20 21 20 18 17 17 15 13 13 16 19 19 17 15 16 17 19 21 21 21 21 19 18 19 21 23
2 2 2 2 2 3 3 3 2 2 1 4 6 5 4 1 3 2 3 8 12 14 13 13 14 13 14 16 18 19 19 18 17 15 14 13 13 12 12 11 10 11 12 12 13 14 15 16 17 18 19 18 17 17 16 15 15 17 19 20 21 20 19 18 17 17 17 17 15 15 16 16 15 12 11 12 13 14 15 16 15 13 12 13 13 14
1 1 2 2 1 2 3 3 2 3 3 7 4 3 4 2 4 8 13 14 15 16 16 16 15 17 20 22 21 22 22 19 17 17 16 15 14 14 13 11 11 12 12 13 14 15 15 16 16 16 17 17 17 17 17 17 18 19 20 21 21 18 16 17 18 17 18 18 18 18 17 16 15 14 12 11 9 7 8 9 9 9 10 10 9 9
1 0 2 1 1 1 2 1 2 3 5 8 5 4 4 7 11 16 19 17 15 17 18 17 16 18 22 22 21 21 20 18 17 16 15 15 14 13 13 12 12 12 13 14 15 15 16 16 17 17 17 15 15 15 15 17 19 20 22 22 20 17 16 16 17 18 19 19 18 18 18 17 17 17 16 14 12 11 10 9 8 8 8 9 9 10
2 4 7 5 3 4 4 4 6 9 11 13 15 14 14 16 16 17 19 19 17 16 17 18 19 19 19 20 20 20 19 18 17 16 15 15 14 13 13 13 12 13 13 13 14 14 15 16 17 18 19 18 17 16 15 14 16 19 21 21 20 19 18 17 18 20 22 23 21 19 17 15 15 15 15 15 15 16 17 16 15 15 14 14 14 13
3 6 8 7 6 8 10 11 11 12 14 16 18 18 19 20 18 18 20 20 18 16 17 19 20 20 20 20 21 20 19 18 17 16 15 15 14 13 13 14 14 14 14 14 15 15 15 16 17 18 19 19 19 19 18 16 15 15 15 16 18 20 20 19 19 19 21 24 26 25 23 20 17 14 12 12 14 15 16 15 15 16 15 14 14 13
3 5 5 5 5 4 6 8 9 12 13 15 17 19 21 21 19 19 20 20 18 17 17 18 20 21 21 20 20 20 18 16 16 15 13 13 13 12 12 12 13 13 14 15 15 15 16 18 18 18 18 18 18 19 20 20 19 18 15 12 12 15 18 21 22 21 21 21 22 24 25 25 23 20 15 11 11 13 14 13 12 12 12 11 11 9
3 6 7 6 5 5 6 8 13 16 16 16 17 19 21 22 21 20 20 20 19 19 19 20 21 21 20 19 18 18 16 14 14 14 13 13 12 12 12 11 11 11 11 11 12 12 14 15 17 17 17 16 16 17 18 19 20 21 20 17 12 9 11 15 20 22 22 22 20 20 21 21 22 23 20 15 11 11 12 12 11 10 11 11 10 8
7 5 5 7 8 8 9 12 15 17 15 15 18 20 22 23 23 22 21 20 20 20 20 20 19 19 19 18 16 16 15 14 13 13 13 13 12 11 11 11 11 10 9 9 9 9 10 11 12 13 14 14 13 14 16 18 18 18 19 20 18 13 10 11 12 15 17 18 19 19 19 19 20 21 21 19 15 12 11 10 9 7 8 9 9 9
10 6 6 9 8 6 7 10 12 10 9 12 19 21 21 22 23 22 20 19 19 19 19 18 17 16 15 15 13 13 13 12 11 11 12 12 12 11 11 11 11 11 11 10 10 10 10 10 9 10 10 10 11 12 14 15 16 17 17 17 17 16 16 15 14 13 13 14 15 16 16 17 18 18 18 18 18 16 14 12 10 8 6 6 6 6
11 9 8 7 6 9 13 16 16 16 15 18 22 22 20 19 19 18 18 16 16 16 16 17 17 15 13 11 9 8 9 9 9 8 9 10 10 9 10 11 11 11 11 11 12 12 11 11 10 9 10 11 10 10 11 13 15 15 17 18 16 14 14 14 15 16 15 13 14 14 14 14 15 15 16 16 17 17 15 14 13 12 11 9 8 7
Wind_Direction
171 168 217 202 203 212 208 188 209 232 232 250 292 290 275 281 276 264 271 253 170 149 181 193 205 240 257 272 260 214 100 136 171 177 192 195 191 196 204 207 203 196 193 197 201 198 197 196 192 182 175 178 176 153 4 267 208 197 202 204 206 213 215 210 201 197 197 195 195 199 201 202 204 206 207 205 204 205 208 208 208 210 211 213 212 207
160 187 232 215 202 203 212 213 218 245 257 256 276 282 285 287 271 279 283 265 135 122 186 196 192 241 255 240 233 164 121 144 169 175 198 201 201 206 208 208 204 196 189 193 194 189 188 187 180 169 170 177 174 141 136 210 196 198 204 204 207 216 211 203 198 195 196 198 198 201 202 202 206 207 206 206 205 204 205 206 207 209 212 211 208 207
170 220 237 218 203 200 220 231 217 228 247 254 257 262 276 271 274 298 313 358 43 105 205 194 176 241 271 262 251 184 148 176 183 185 198 201 202 208 211 211 208 199 189 187 184 180 183 184 177 171 178 192 178 169 182 182 198 206 208 204 201 203 193 190 193 191 194 201 203 207 209 207 207 206 207 210 209 208 207 208 209 209 211 208 206 208
194 232 231 214 193 189 230 248 230 237 256 247 238 242 264 265 267 291 323 355 7 85 170 140 148 272 304 322 297 226 137 167 194 197 200 199 200 208 216 216 212 209 199 185 175 174 178 181 183 186 195 198 171 179 201 184 192 201 201 195 176 104 108 177 189 191 201 212 210 211 213 210 209 208 211 213 212 214 211 211 212 208 206 205 205 207
230 243 215 194 190 191 221 249 230 218 257 257 226 218 236 252 232 215 302 351 355 357 76 84 46 323 329 343 314 294 18 23 221 210 206 206 209 216 221 217 215 217 199 177 168 171 180 186 191 194 194 179 168 187 207 179 185 190 187 185 169 131 130 173 190 191 193 204 209 209 208 208 210 210 213 213 211 212 211 211 211 206 201 202 203 205
246 247 197 178 205 202 208 242 218 182 220 268 239 216 208 219 234 220 61 41 23 347 336 82 65 305 315 322 297 314 13 18 358 290 249 241 239 247 242 229 230 297 130 162 166 173 182 185 185 183 178 168 171 194 196 176 182 180 177 178 168 150 152 171 189 187 182 190 201 203 203 205 207 208 212 213 210 210 209 208 207 205 200 198 201 201
235 216 187 185 207 208 211 240 219 166 172 240 242 220 203 212 287 321 52 79 82 277 275 89 113 242 311 328 309 357 43 29 16 16 6 3 340 255 254 272 269 261 178 164 171 180 180 175 173 174 175 172 177 191 188 179 180 177 176 177 169 157 157 167 180 182 182 191 200 203 206 209 209 209 212 213 211 210 210 207 204 204 201 200 200 197
195 186 194 195 201 205 213 238 213 157 151 226 237 211 218 308 306 306 49 111 193 228 318 7 102 137 335 333 320 15 56 31 17 14 0 1 2 284 205 219 221 207 194 171 174 183 183 177 176 179 180 177 180 189 189 182 183 184 183 178 172 167 161 161 171 180 186 197 205 207 209 212 213 214 215 214 211 210 210 207 203 201 201 201 200 197
187 183 198 190 194 204 209 228 201 156 158 234 224 194 233 264 265 294 65 134 193 78 340 318 64 86 334 324 327 12 51 30 13 7 356 359 12 43 108 142 163 159 160 170 171 175 178 175 173 173 177 181 184 193 194 181 183 190 190 181 176 177 176 171 174 182 191 204 212 211 211 213 214 216 219 217 210 207 206 204 199 197 198 199 197 194
236 213 209 179 178 203 214 227 190 158 188 225 189 149 59 358 2 355 65 115 50 56 263 274 47 100 313 332 342 7 38 24 359 357 359 3 19 48 79 97 116 133 142 153 161 167 169 165 166 172 189 196 194 197 193 180 180 187 190 188 185 187 189 189 188 189 194 206 213 215 216 215 215 217 219 216 210 205 201 198 196 194 196 195 189 186
256 251 245 187 189 202 204 211 180 169 183 163 133 112 38 14 15 21 40 77 46 6 257 260 90 103 107 339 355 16 27 20 -0 2 6 6 19 40 61 85 107 122 133 142 149 156 157 160 170 180 196 200 196 192 184 179 184 189 189 193 196 199 202 203 203 203 202 205 211 216 218 218 219 221 220 215 209 204 199 196 196 194 193 189 185 184
285 268 266 223 218 198 165 186 186 171 147 110 94 102 62 343 8 24 358 35 66 282 266 263 72 80 89 301 22 52 44 34 33 28 16 10 17 30 45 66 91 113 130 139 144 149 156 166 178 178 182 196 199 193 184 182 191 195 195 196 199 206 211 210 210 212 211 209 210 213 216 218 221 224 222 215 209 206 200 196 195 191 187 185 184 185
317 256 248 244 233 183 144 150 279 26 64 90 87 86 98 323 22 11 301 11 157 242 260 252 101 75 84 29 35 58 61 46 44 45 34 30 27 29 40 51 65 87 111 131 142 150 158 169 178 176 179 191 201 199 192 192 199 202 203 203 205 209 213 215 216 217 217 216 212 210 213 216 220 224 222 216 214 210 202 196 193 187 183 184 185 186
316 293 274 245 252 182 145 136 151 306 65 112 128 125 131 124 89 249 271 22 244 259 273 265 126 114 129 49 1 38 73 65 57 56 49 46 42 38 43 51 63 72 78 93 116 133 148 163 173 179 182 187 196 198 195 199 209 216 218 217 218 217 216 221 225 222 219 219 215 209 210 214 217 221 219 218 217 209 201 195 190 186 184 185 187 190
199 300 269 195 220 196 154 151 162 155 133 157 162 139 144 147 136 187 209 163 226 263 292 302 83 129 153 129 278 41 81 78 70 63 57 54 51 50 50 51 55 58 58 61 63 68 87 137 162 201 197 196 201 203 202 205 210 218 228 234 235 236 239 243 236 225 219 219 216 211 212 214 215 217 218 217 211 204 200 192 186 186 187 187 189 194
158 240 251 221 183 167 155 170 146 114 123 224 136 105 152 174 147 151 172 166 177 184 342 352 51 76 134 137 174 69 80 80 76 69 62 57 52 51 48 43 42 43 42 42 40 39 37 33 25 4 331 215 216 218 219 215 211 214 226 235 231 235 270 288 260 237 227 220 215 214 214 215 215 214 213 208 201 198 195 187 184 187 189 189 193 196
146 247 272 239 156 174 161 168 153 135 167 239 108 153 222 165 137 136 197 144 103 125 268 118 106 105 127 106 31 46 75 76 73 72 67 59 53 50 47 44 43 41 38 36 29 22 19 17 9 359 359 324 232 230 230 226 222 223 231 241 232 223 245 282 266 245 234 225 224 222 213 211 213 213 207 200 194 192 189 185 186 191 191 193 199 200
154 256 288 153 170 220 179 161 156 151 147 114 158 206 180 94 102 108 151 8 68 163 266 45 121 150 152 107 4 36 75 77 74 78 73 60 50 48 49 50 49 46 43 42 37 31 31 30 22 2 347 341 254 222 227 230 232 233 237 251 244 227 236 257 256 245 236 235 246 245 215 205 207 208 201 196 192 187 187 187 189 192 192 194 201 202
138 238 292 260 174 215 168 129 78 318 153 140 169 177 125 126 229 61 147 140 120 173 254 15 57 126 154 158 351 31 75 86 77 72 71 62 54 51 50 48 48 49 49 47 44 44 48 49 42 36 27 16 358 266 248 239 239 240 243 254 251 234 236 248 251 246 242 245 259 262 219 204 208 208 197 192 191 188 189 191 189 189 193 195 199 200
139 116 282 290 277 133 69 85 168 280 305 130 128 115 114 143 163 192 176 149 154 184 163 67 5 313 226 211 128 69 82 93 83 72 70 66 62 59 54 50 47 47 49 48 48 48 51 54 50 45 45 44 38 2 299 263 248 243 241 247 246 235 234 242 247 244 240 243 253 252 216 203 208 207 196 192 191 189 190 193 191 190 195 197 194 194
165 131 217 293 341 76 97 238 194 189 191 171 163 191 217 215 173 163 142 130 139 159 155 122 90 269 256 262 111 96 79 84 86 84 79 71 68 66 60 55 49 47 47 46 47 47 46 49 48 44 45 46 44 32 10 325 266 225 219 235 252 255 248 241 233 227 228 236 244 238 213 205 206 201 196 194 193 189 187 189 191 192 195 195 193 192
170 152 184 266 349 113 197 313 189 188 172 155 168 198 189 193 180 132 256 302 98 131 158 135 153 250 329 66 90 81 66 63 68 77 81 74 70 67 61 57 51 47 48 44 42 42 40 39 40 41 40 37 30 18 7 355 333 207 192 217 247 256 254 241 220 215 219 225 231 227 215 210 206 202 199 194 191 189 185 185 189 191 194 195 194 195
151 119 138 220 245 186 116 62 56 53 89 102 97 353 122 132 129 131 192 253 76 89 105 102 118 227 105 88 91 83 76 68 61 64 74 73 71 68 61 55 50 47 50 48 43 39 35 33 32 35 38 36 31 22 13 7 358 326 214 229 249 247 248 244 229 221 221 224 225 223 220 215 208 205 201 193 190 188 184 186 189 190 194 196 194 195
71 95 142 252 294 312 77 62 47 38 54 68 34 1 26 102 147 146 173 174 99 61 65 89 95 192 161 136 109 96 86 73 61 57 65 67 67 65 60 54 47 46 49 49 46 40 36 35 31 31 31 26 21 16 10 8 5 359 302 266 266 244 236 236 230 224 225 229 228 223 221 218 213 207 198 191 191 190 186 188 190 190 193 195 192 193
52 80 120 94 349 339 351 16 18 15 35 60 2 339 344 0 55 96 114 88 72 20 126 118 124 168 150 126 102 91 81 70 55 51 58 60 57 56 56 55 50 47 47 45 43 40 37 36 32 28 24 17 9 -0 356 353 349 348 339 318 302 278 253 243 236 230 228 230 230 225 219 216 216 208 196 192 194 192 189 190 191 191 192 192 192 190
97 73 115 128 162 198 203 206 257 315 13 52 5 350 354 4 20 81 113 77 87 137 87 104 143 134 105 90 79 72 70 65 48 43 50 54 55 54 53 56 55 51 48 43 41 41 40 38 34 29 22 15 7 356 348 344 338 336 332 321 311 303 288 270 258 249 242 237 234 232 222 215 216 208 196 194 195 193 191 190 191 190 189 190 191 184
97 50 63 108 129 166 168 177 205 134 79 50 8 4 4 359 6 80 105 95 140 130 51 69 137 121 100 83 74 60 55 55 43 38 41 44 50 52 51 53 55 54 52 48 46 44 43 40 35 30 25 17 12 5 356 348 339 333 329 322 313 307 298 287 275 266 260 252 245 240 230 218 215 207 198 196 195 193 192 191 191 188 187 191 187 179
103 38 25 72 82 93 100 86 76 85 82 71 47 25 14 15 27 56 75 118 144 114 66 139 119 108 99 82 76 69 59 53 45 40 36 36 46 52 51 49 49 51 52 51 49 46 44 42 37 32 29 23 17 11 7 1 351 344 337 331 324 317 307 297 286 278 274 265 254 247 239 230 221 208 200 198 196 194 192 190 189 187 188 190 182 175
111 49 17 72 78 71 81 88 85 85 79 66 61 45 27 33 43 52 45 342 114 125 150 144 114 101 100 83 73 71 66 61 52 45 40 40 46 50 48 43 41 41 42 45 46 43 41 40 37 33 29 26 23 17 12 7 2 357 352 344 338 332 322 309 299 293 285 268 255 250 245 237 227 212 204 201 199 198 193 188 187 188 188 184 177 174
97 54 41 90 85 59 55 87 94 92 86 63 53 48 42 46 49 52 48 35 55 91 116 113 101 93 91 81 71 65 65 63 55 47 41 36 40 42 40 38 36 33 34 41 43 40 37 36 36 32 25 22 22 19 14 12 8 1 356 353 350 346 338 328 319 303 288 276 261 251 244 238 228 213 205 202 200 199 194 189 187 183 179 176 173 175
56 105 222 95 85 46 32 74 87 90 87 69 46 33 36 44 41 38 38 37 57 82 91 92 94 90 79 84 80 69 66 63 51 43 38 31 33 36 34 34 31 28 31 39 42 39 36 35 36 32 26 21 19 15 13 13 10 4 359 356 353 350 342 331 326 307 279 276 268 246 237 235 226 212 202 200 200 198 193 190 185 175 172 173 173 176
60 130 223 74 86 99 180 102 100 94 83 67 42 19 23 42 48 39 31 24 54 107 108 95 92 101 111 102 85 70 65 61 48 39 37 32 30 31 33 33 29 24 27 36 42 42 38 35 32 28 28 25 17 12 11 9 6 6 8 3 356 352 340 319 315 297 264 260 263 250 240 232 221 209 201 198 198 195 189 190 187 177 173 175 176 176
100 121 112 86 99 162 222 193 101 83 72 55 14 348 1 54 85 62 40 29 35 86 113 98 91 113 127 115 91 74 66 60 50 42 39 35 32 32 36 38 32 27 30 37 44 47 42 37 30 24 25 25 18 12 9 7 6 10 16 14 6 2 355 335 321 295 260 248 242 236 234 228 217 205 199 197 195 191 189 193 192 183 176 177 178 178
102 106 105 102 112 145 201 252 357 50 75 72 308 325 22 90 89 73 52 39 46 63 81 90 94 95 102 106 99 90 78 68 62 56 50 45 40 38 39 41 38 36 39 43 47 49 46 42 36 27 25 23 15 7 2 4 10 12 11 12 12 14 11 356 334 284 229 228 213 204 206 213 212 203 196 195 191 187 188 194 190 180 178 180 179 180
117 106 109 103 93 120 164 220 72 83 130 170 300 29 82 97 88 80 66 48 59 83 93 94 99 104 105 106 104 99 91 81 71 63 57 51 47 46 47 49 50 49 48 46 45 45 44 41 37 35 34 25 13 6 2 6 15 11 359 357 6 18 24 22 24 84 124 171 195 192 186 191 201 201 194 190 187 185 187 190 184 177 178 180 178 179
142 134 116 94 88 111 115 0 114 120 132 133 93 38 88 99 84 77 62 37 39 80 108 109 115 121 118 116 113 106 98 88 74 62 58 59 58 56 54 56 58 59 58 52 46 44 44 39 36 41 41 30 18 20 18 15 19 16 6 4 12 21 31 43 54 62 77 114 160 178 176 173 183 192 190 185 184 184 184 184 180 177 178 177 175 177
140 144 118 81 67 112 103 65 86 110 124 122 53 347 358 333 263 99 83 46 19 40 111 127 128 133 134 133 130 121 105 87 70 56 56 68 72 68 65 66 68 68 68 63 56 54 55 50 49 51 48 36 28 34 36 30 28 28 25 27 34 34 39 52 58 59 62 64 82 137 161 162 167 177 183 181 178 178 179 179 180 181 179 176 176 176
88 142 144 117 51 79 109 106 109 135 174 174 142 323 330 320 231 155 96 97 9 17 117 145 146 150 153 152 151 144 119 78 63 51 60 77 82 82 81 81 83 81 76 71 66 64 62 60 60 60 57 50 42 42 46 43 39 43 45 46 51 51 52 57 57 57 62 62 61 81 124 152 158 163 170 174 176 182 182 177 176 179 178 176 175 172
44 49 99 101 93 113 118 117 131 174 192 146 304 318 332 332 217 188 89 114 345 7 113 139 143 156 166 175 176 172 154 62 95 84 84 89 88 88 86 82 83 83 80 77 72 68 67 65 65 66 64 59 53 49 51 54 54 57 60 60 60 60 56 55 55 55 61 68 72 76 81 95 127 147 157 163 169 178 180 174 170 172 174 172 170 166
30 24 54 91 115 123 109 105 99 109 115 43 333 315 326 330 218 190 124 159 313 45 114 123 118 137 160 174 177 177 135 117 143 132 114 103 93 90 88 82 81 81 79 78 76 73 72 69 66 66 65 63 61 58 58 61 63 66 67 65 62 61 58 54 55 59 65 75 85 87 85 79 75 93 122 138 146 152 157 157 154 156 159 158 155 155
33 29 52 94 106 95 97 111 99 73 103 334 320 315 319 316 187 169 192 167 116 100 110 107 100 115 132 139 137 119 98 119 131 127 116 103 92 89 86 82 83 82 79 79 78 76 75 72 69 68 67 67 66 63 62 63 67 70 71 69 64 62 62 61 62 66 72 80 89 95 97 95 87 81 84 94 108 119 126 129 130 133 138 141 145 149
38 24 35 68 102 106 104 102 103 119 23 328 311 316 342 326 193 154 124 130 116 107 107 100 98 107 111 110 111 111 113 122 126 123 117 107 99 93 88 85 85 83 82 81 81 78 76 75 73 71 70 69 69 68 66 64 66 69 70 69 66 64 65 68 69 70 73 77 81 87 94 100 108 111 102 95 99 104 107 111 117 123 129 136 145 150
113 95 70 55 66 113 101 79 122 158 340 340 316 300 2 29 144 118 107 113 113 111 110 104 101 110 112 109 110 116 121 125 126 125 120 113 106 100 94 92 88 85 87 85 82 79 77 76 74 71 69 68 68 69 70 69 69 69 67 66 66 64 65 69 71 71 72 72 74 77 82 92 107 119 126 130 137 132 116 113 118 122 128 136 145 150
294 243 140 176 304 79 106 90 113 104 25 28 69 101 68 94 124 120 110 107 109 113 114 109 109 117 120 118 118 121 124 124 124 123 119 113 110 104 99 96 93 93 94 90 85 81 78 76 74 71 69 67 64 64 66 70 74 75 74 73 72 70 69 71 73 72 69 66 66 68 70 79 92 105 114 125 143 155 156 161 170 166 162 164 167 171
31 83 101 94 55 71 92 95 93 83 65 68 85 96 99 109 122 124 117 111 112 115 116 115 118 123 125 124 123 122 121 119 118 116 110 105 100 94 89 86 86 90 92 91 87 82 78 78 76 72 69 65 62 60 59 64 72 76 77 78 79 78 76 75 76 75 71 67 65 64 64 68 77 88 95 102 116 129 135 142 151 154 153 151 150 156
84 87 88 91 99 92 81 81 88 85 77 81 90 98 105 112 119 121 117 114 115 119 119 120 124 126 125 123 121 119 117 116 113 108 103 100 95 91 87 83 80 80 80 80 79 76 76 77 74 68 65 61 58 57 55 55 60 66 72 78 80 80 81 81 80 77 74 70 67 64 62 62 65 73 84 91 96 104 111 119 127 131 132 131 129 134
27 55 77 108 138 115 82 86 94 89 86 88 92 99 105 110 115 117 115 115 117 118 119 121 124 124 121 117 115 113 111 110 108 104 101 100 99 98 96 91 86 83 80 77 75 74 76 76 71 65 62 60 57 53 51 51 52 53 58 71 82 85 85 85 83 80 76 73 69 64 60 59 59 62 70 84 93 93 94 98 103 109 113 114 115 117
104 87 82 87 95 88 94 106 101 94 93 93 95 101 106 109 113 115 115 117 118 116 119 121 121 120 118 114 112 110 109 107 106 104 100 98 98 97 94 91 87 86 86 82 77 72 71 71 70 67 63 62 59 53 51 54 54 50 47 48 55 75 90 90 86 82 77 74 72 68 63 60 58 58 60 68 86 100 101 101 104 106 105 105 108 114
132 114 98 104 104 93 98 112 108 97 90 92 100 108 113 115 116 116 116 119 120 120 121 122 120 120 119 118 117 115 115 114 112 108 105 102 99 96 92 89 84 81 82 81 74 66 64 66 68 67 65 63 59 52 52 57 59 56 49 41 37 43 60 77 87 87 81 75 72 70 64 59 58 58 57 58 65 77 90 97 105 113 112 108 109 114
113 117 119 119 119 116 131 146 137 114 103 112 116 117 119 121 121 121 122 123 123 125 126 124 122 122 119 116 114 112 116 121 118 113 109 103 99 96 92 88 84 79 78 78 73 65 62 67 72 72 68 63 53 45 42 46 53 60 60 50 39 38 47 56 65 76 78 71 67 68 66 61 59 58 58 58 58 60 66 73 79 88 97 102 103 109
123 144 143 126 123 137 151 155 139 121 125 131 126 122 123 126 125 124 126 125 125 129 131 127 124 122 119 116 109 102 109 120 121 115 107 101 101 102 100 99 96 89 83 79 75 67 59 59 65 64 57 50 49 54 51 42 44 54 56 49 45 46 50 51 55 65 74 68 59 58 62 65 67 65 61 59 59 59 61 66 72 76 79 80 83 89